Time,TemperatureF,DewpointF,PressureIn,WindDirection,WindDirectionDegrees,WindSpeedMPH,WindSpeedGustMPH,Humidity,HourlyPrecipIn,Conditions,Clouds,dailyrainin,SolarRadiationWatts/m^2,SoftwareType,DateUTC
2013-01-11 00:00:00,42.5,33.4,29.82,WSW,257,9.0,14.0,70,0.00,,,0.00,0,LWC V2.00 B727,2013-01-11 07:00:00,
2013-01-11 00:05:00,41.4,32.7,29.84,WSW,255,2.0,6.0,71,0.00,,,0.00,0,LWC V2.00 B727,2013-01-11 07:05:00,
2013-01-11 00:10:00,40.7,32.7,29.86,WNW,289,2.0,6.0,73,0.00,,,0.00,0,LWC V2.00 B727,2013-01-11 07:10:00,
2013-01-11 00:15:00,40.2,32.6,29.86,West,267,2.0,4.0,74,0.00,,,0.00,0,LWC V2.00 B727,2013-01-11 07:15:00,
2013-01-11 00:20:00,40.0,33.4,29.87,SW,232,4.0,8.0,77,0.00,,,0.00,0,LWC V2.00 B727,2013-01-11 07:20:00,
2013-01-11 00:25:00,39.7,33.1,29.88,SSW,198,3.0,7.0,77,0.00,,,0.00,0,LWC V2.00 B727,2013-01-11 07:25:00,
2013-01-11 00:30:00,38.5,31.6,29.88,South,182,3.0,11.0,76,0.00,,,0.00,0,LWC V2.00 B727,2013-01-11 07:30:00,
2013-01-11 00:35:00,37.2,31.3,29.88,SSW,200,3.0,6.0,79,0.00,,,0.00,0,LWC V2.00 B727,2013-01-11 07:35:00,
2013-01-11 00:40:00,36.5,31.2,29.89,SSW,198,3.0,3.0,81,0.00,,,0.00,0,LWC V2.00 B727,2013-01-11 07:40:00,
2013-01-11 00:45:00,36.1,31.4,29.89,SSW,197,2.0,7.0,83,0.00,,,0.01,0,LWC V2.00 B727,2013-01-11 07:45:00,
2013-01-11 00:50:00,36.0,31.6,29.89,SSW,213,4.0,9.0,84,0.00,,,0.01,0,LWC V2.00 B727,2013-01-11 07:50:00,
2013-01-11 00:55:00,35.7,31.6,29.90,SSW,198,3.0,3.0,85,0.00,,,0.01,0,LWC V2.00 B727,2013-01-11 07:55:00,
2013-01-11 01:00:00,35.3,31.2,29.91,SSW,205,3.0,7.0,85,0.00,,,0.01,0,LWC V2.00 B727,2013-01-11 08:00:00,
2013-01-11 01:05:00,34.7,30.9,29.91,SSE,156,3.0,6.0,86,0.00,,,0.00,0,LWC V2.00 B727,2013-01-11 08:05:00,
2013-01-11 01:10:00,34.2,30.5,29.91,SSE,150,4.0,5.0,86,0.00,,,0.00,0,LWC V2.00 B727,2013-01-11 08:10:00,
2013-01-11 01:15:00,33.9,30.4,29.91,SE,142,4.0,8.0,87,0.00,,,0.00,0,LWC V2.00 B727,2013-01-11 08:15:00,
2013-01-11 01:20:00,33.8,30.6,29.91,SSE,168,3.0,8.0,88,0.00,,,0.00,0,LWC V2.00 B727,2013-01-11 08:20:00,
2013-01-11 01:25:00,33.7,30.5,29.92,SSE,161,3.0,6.0,88,0.00,,,0.00,0,LWC V2.00 B727,2013-01-11 08:25:00,
2013-01-11 01:30:00,33.7,30.5,29.91,South,181,4.0,6.0,88,0.00,,,0.00,0,LWC V2.00 B727,2013-01-11 08:30:00,
2013-01-11 01:35:00,33.6,30.7,29.92,SE,145,3.0,4.0,89,0.00,,,0.00,0,LWC V2.00 B727,2013-01-11 08:35:00,
2013-01-11 01:40:00,33.6,30.7,29.92,SE,144,3.0,5.0,89,0.00,,,0.00,0,LWC V2.00 B727,2013-01-11 08:40:00,
2013-01-11 01:45:00,33.6,30.7,29.92,SSE,151,3.0,4.0,89,0.00,,,0.00,0,LWC V2.00 B727,2013-01-11 08:45:00,
2013-01-11 01:50:00,33.6,30.7,29.92,SE,140,1.0,3.0,89,0.00,,,0.00,0,LWC V2.00 B727,2013-01-11 08:50:00,
2013-01-11 01:55:00,33.6,30.7,29.93,SE,128,0.0,4.0,89,0.00,,,0.00,0,LWC V2.00 B727,2013-01-11 08:55:00,
2013-01-11 02:00:00,33.6,30.7,29.93,ESE,111,1.0,3.0,89,0.00,,,0.00,0,LWC V2.00 B727,2013-01-11 09:00:00,
2013-01-11 02:05:00,33.7,31.1,29.93,SE,139,1.0,2.0,90,0.00,,,0.00,0,LWC V2.00 B727,2013-01-11 09:05:00,
2013-01-11 02:10:00,33.8,31.2,29.93,SE,138,0.0,2.0,90,0.00,,,0.00,0,LWC V2.00 B727,2013-01-11 09:10:00,
2013-01-11 02:15:00,33.8,32.8,29.93,SSE,154,1.0,6.0,96,0.00,,,0.00,0,LWC V2.00 B727,2013-01-11 09:15:00,
2013-01-11 02:20:00,33.8,31.2,29.94,SSE,160,3.0,4.0,90,0.00,,,0.00,0,LWC V2.00 B727,2013-01-11 09:20:00,
2013-01-11 02:25:00,33.9,31.3,29.94,SE,134,3.0,5.0,90,0.00,,,0.00,0,LWC V2.00 B727,2013-01-11 09:25:00,
2013-01-11 02:30:00,33.9,31.3,29.94,SE,133,2.0,3.0,90,0.00,,,0.00,0,LWC V2.00 B727,2013-01-11 09:30:00,
2013-01-11 02:35:00,33.9,31.3,29.94,SE,133,3.0,4.0,90,0.00,,,0.00,0,LWC V2.00 B727,2013-01-11 09:35:00,
2013-01-11 02:40:00,33.9,31.3,29.94,SSE,162,1.0,4.0,90,0.00,,,0.00,0,LWC V2.00 B727,2013-01-11 09:40:00,
2013-01-11 02:45:00,34.0,31.4,29.94,SSE,161,2.0,2.0,90,0.00,,,0.00,0,LWC V2.00 B727,2013-01-11 09:45:00,
2013-01-11 02:50:00,34.0,31.1,29.94,SSE,160,2.0,3.0,89,0.00,,,0.00,0,LWC V2.00 B727,2013-01-11 09:50:00,
2013-01-11 02:55:00,34.0,31.1,29.93,ESE,106,3.0,4.0,89,0.00,,,0.00,0,LWC V2.00 B727,2013-01-11 09:55:00,
2013-01-11 03:00:00,34.1,31.2,29.93,ESE,119,5.0,5.0,89,0.00,,,0.00,0,LWC V2.00 B727,2013-01-11 10:00:00,
2013-01-11 03:05:00,34.2,31.0,29.93,SSE,161,4.0,7.0,88,0.00,,,0.00,0,LWC V2.00 B727,2013-01-11 10:05:00,
2013-01-11 03:10:00,34.4,31.2,29.94,SE,144,3.0,5.0,88,0.00,,,0.00,0,LWC V2.00 B727,2013-01-11 10:10:00,
2013-01-11 03:15:00,34.6,31.1,29.94,SE,133,1.0,3.0,87,0.00,,,0.00,0,LWC V2.00 B727,2013-01-11 10:15:00,
2013-01-11 03:20:00,34.8,31.0,29.94,SSE,168,2.0,4.0,86,0.00,,,0.00,0,LWC V2.00 B727,2013-01-11 10:20:00,
2013-01-11 03:25:00,35.0,31.0,29.94,South,169,3.0,4.0,85,0.00,,,0.00,0,LWC V2.00 B727,2013-01-11 10:25:00,
2013-01-11 03:30:00,35.2,30.6,29.94,SSE,167,0.0,1.0,83,0.00,,,0.00,0,LWC V2.00 B727,2013-01-11 10:30:00,
2013-01-11 03:35:00,35.5,30.6,29.95,SSE,167,2.0,3.0,82,0.00,,,0.00,0,LWC V2.00 B727,2013-01-11 10:35:00,
2013-01-11 03:40:00,35.7,30.5,29.95,SSE,167,1.0,2.0,81,0.00,,,0.00,0,LWC V2.00 B727,2013-01-11 10:40:00,
2013-01-11 03:45:00,35.9,30.6,29.95,SSE,167,0.0,3.0,81,0.00,,,0.00,0,LWC V2.00 B727,2013-01-11 10:45:00,
2013-01-11 03:50:00,35.9,30.3,29.95,SSE,167,0.0,3.0,80,0.00,,,0.00,0,LWC V2.00 B727,2013-01-11 10:50:00,
2013-01-11 03:55:00,36.0,30.4,29.95,SSE,167,0.0,0.0,80,0.00,,,0.00,0,LWC V2.00 B727,2013-01-11 10:55:00,
2013-01-11 04:00:00,36.1,30.5,29.95,SSE,167,0.0,1.0,80,0.00,,,0.00,0,LWC V2.00 B727,2013-01-11 11:00:00,
2013-01-11 04:05:00,36.2,30.3,29.95,SSE,167,0.0,0.0,79,0.00,,,0.00,0,LWC V2.00 B727,2013-01-11 11:05:00,
2013-01-11 04:10:00,36.1,30.2,29.95,SSE,167,0.0,2.0,79,0.00,,,0.00,0,LWC V2.00 B727,2013-01-11 11:10:00,
2013-01-11 04:15:00,36.2,30.6,29.95,SSE,167,0.0,1.0,80,0.00,,,0.00,0,LWC V2.00 B727,2013-01-11 11:15:00,
2013-01-11 04:20:00,36.1,30.5,29.94,SSE,167,0.0,2.0,80,0.00,,,0.00,0,LWC V2.00 B727,2013-01-11 11:20:00,
2013-01-11 04:25:00,36.1,30.2,29.95,SSE,167,0.0,2.0,79,0.00,,,0.00,0,LWC V2.00 B727,2013-01-11 11:25:00,
2013-01-11 04:30:00,36.1,30.2,29.95,SSE,167,0.0,1.0,79,0.00,,,0.00,0,LWC V2.00 B727,2013-01-11 11:30:00,
2013-01-11 04:35:00,36.2,30.3,29.94,SSW,194,1.0,6.0,79,0.00,,,0.00,0,LWC V2.00 B727,2013-01-11 11:35:00,
2013-01-11 04:40:00,36.2,30.0,29.94,SSW,192,3.0,3.0,78,0.00,,,0.00,0,LWC V2.00 B727,2013-01-11 11:40:00,
2013-01-11 04:45:00,36.3,30.1,29.94,South,186,1.0,4.0,78,0.00,,,0.00,0,LWC V2.00 B727,2013-01-11 11:45:00,
2013-01-11 04:50:00,36.3,30.1,29.94,South,186,0.0,2.0,78,0.00,,,0.00,0,LWC V2.00 B727,2013-01-11 11:50:00,
2013-01-11 04:55:00,36.3,30.1,29.94,South,186,0.0,0.0,78,0.00,,,0.00,0,LWC V2.00 B727,2013-01-11 11:55:00,
2013-01-11 05:00:00,36.2,30.0,29.94,South,186,1.0,2.0,78,0.00,,,0.00,0,LWC V2.00 B727,2013-01-11 12:00:00,
2013-01-11 05:05:00,36.2,30.3,29.94,South,186,1.0,2.0,79,0.00,,,0.00,0,LWC V2.00 B727,2013-01-11 12:05:00,
2013-01-11 05:10:00,36.2,30.3,29.94,South,186,0.0,2.0,79,0.00,,,0.01,0,LWC V2.00 B727,2013-01-11 12:10:00,
2013-01-11 05:15:00,36.1,29.9,29.94,South,186,1.0,3.0,78,0.00,,,0.01,0,LWC V2.00 B727,2013-01-11 12:15:00,
2013-01-11 05:20:00,36.1,29.9,29.94,South,186,1.0,2.0,78,0.00,,,0.01,0,LWC V2.00 B727,2013-01-11 12:20:00,
2013-01-11 05:25:00,36.2,29.7,29.94,SSW,197,1.0,3.0,77,0.00,,,0.01,0,LWC V2.00 B727,2013-01-11 12:25:00,
2013-01-11 05:30:00,36.2,29.4,29.95,SSW,197,1.0,3.0,76,0.00,,,0.01,0,LWC V2.00 B727,2013-01-11 12:30:00,
2013-01-11 05:35:00,36.3,29.5,29.95,SSW,192,0.0,2.0,76,0.00,,,0.01,0,LWC V2.00 B727,2013-01-11 12:35:00,
2013-01-11 05:40:00,36.3,29.8,29.95,SSW,192,0.0,2.0,77,0.00,,,0.01,0,LWC V2.00 B727,2013-01-11 12:40:00,
2013-01-11 05:45:00,36.2,29.4,29.95,SSW,192,1.0,2.0,76,0.00,,,0.01,0,LWC V2.00 B727,2013-01-11 12:45:00,
2013-01-11 05:50:00,36.2,29.4,29.95,SSW,192,3.0,4.0,76,0.00,,,0.01,0,LWC V2.00 B727,2013-01-11 12:50:00,
2013-01-11 05:55:00,36.2,29.1,29.95,South,187,1.0,4.0,75,0.00,,,0.01,0,LWC V2.00 B727,2013-01-11 12:55:00,
2013-01-11 06:00:00,36.2,29.1,29.95,SSW,192,2.0,4.0,75,0.00,,,0.01,0,LWC V2.00 B727,2013-01-11 13:00:00,
2013-01-11 06:05:00,36.2,28.7,29.96,SSW,198,0.0,5.0,74,0.00,,,0.01,0,LWC V2.00 B727,2013-01-11 13:05:00,
2013-01-11 06:10:00,36.2,29.1,29.96,SSW,198,1.0,1.0,75,0.00,,,0.01,0,LWC V2.00 B727,2013-01-11 13:10:00,
2013-01-11 06:15:00,36.2,28.7,29.97,SSW,198,0.0,3.0,74,0.00,,,0.01,0,LWC V2.00 B727,2013-01-11 13:15:00,
2013-01-11 06:20:00,36.1,29.0,29.97,SSW,194,2.0,2.0,75,0.00,,,0.01,0,LWC V2.00 B727,2013-01-11 13:20:00,
2013-01-11 06:25:00,36.0,28.9,29.97,SSW,194,1.0,2.0,75,0.00,,,0.01,0,LWC V2.00 B727,2013-01-11 13:25:00,
2013-01-11 06:30:00,35.9,28.8,29.97,SSW,193,0.0,1.0,75,0.00,,,0.01,0,LWC V2.00 B727,2013-01-11 13:30:00,
2013-01-11 06:35:00,35.7,28.6,29.98,SSW,193,0.0,3.0,75,0.00,,,0.01,0,LWC V2.00 B727,2013-01-11 13:35:00,
2013-01-11 06:40:00,35.7,28.6,29.98,SSW,193,2.0,3.0,75,0.00,,,0.01,0,LWC V2.00 B727,2013-01-11 13:40:00,
2013-01-11 06:45:00,35.6,28.5,29.98,SSW,193,3.0,4.0,75,0.00,,,0.01,0,LWC V2.00 B727,2013-01-11 13:45:00,
2013-01-11 06:50:00,35.6,28.1,29.98,SSW,194,1.0,3.0,74,0.00,,,0.01,0,LWC V2.00 B727,2013-01-11 13:50:00,
2013-01-11 06:55:00,35.6,28.1,29.98,SSW,194,2.0,4.0,74,0.00,,,0.01,0,LWC V2.00 B727,2013-01-11 13:55:00,
2013-01-11 07:00:00,35.5,27.7,29.99,SSW,194,2.0,3.0,73,0.00,,,0.01,0,LWC V2.00 B727,2013-01-11 14:00:00,
2013-01-11 07:05:00,35.5,28.0,29.99,SSW,194,1.0,1.0,74,0.00,,,0.01,0,LWC V2.00 B727,2013-01-11 14:05:00,
2013-01-11 07:10:00,35.3,27.9,29.98,SSW,194,2.0,3.0,74,0.00,,,0.01,0,LWC V2.00 B727,2013-01-11 14:10:00,
2013-01-11 07:15:00,35.2,27.8,29.99,SSW,194,1.0,2.0,74,0.00,,,0.01,0,LWC V2.00 B727,2013-01-11 14:15:00,
2013-01-11 07:20:00,35.1,27.7,29.99,SSW,194,0.0,0.0,74,0.00,,,0.01,0,LWC V2.00 B727,2013-01-11 14:20:00,
2013-01-11 07:25:00,35.0,27.6,29.99,SSW,194,0.0,0.0,74,0.00,,,0.01,0,LWC V2.00 B727,2013-01-11 14:25:00,
2013-01-11 07:30:00,35.0,27.6,30.00,SSW,194,0.0,2.0,74,0.00,,,0.01,0,LWC V2.00 B727,2013-01-11 14:30:00,
2013-01-11 07:35:00,34.8,27.7,30.00,SSW,194,0.0,2.0,75,0.00,,,0.01,5,LWC V2.00 B727,2013-01-11 14:35:00,
2013-01-11 07:40:00,34.7,27.6,30.00,SSW,194,1.0,2.0,75,0.00,,,0.01,7,LWC V2.00 B727,2013-01-11 14:40:00,
2013-01-11 07:45:00,34.7,27.6,30.00,SSW,194,0.0,3.0,75,0.00,,,0.01,9,LWC V2.00 B727,2013-01-11 14:45:00,
2013-01-11 07:50:00,34.5,27.7,30.00,SSW,194,2.0,2.0,76,0.00,,,0.01,9,LWC V2.00 B727,2013-01-11 14:50:00,
2013-01-11 07:55:00,34.3,27.5,30.01,SSW,194,2.0,2.0,76,0.00,,,0.01,11,LWC V2.00 B727,2013-01-11 14:55:00,
2013-01-11 08:00:00,34.2,27.4,30.01,SSW,194,1.0,2.0,76,0.00,,,0.01,12,LWC V2.00 B727,2013-01-11 15:00:00,
2013-01-11 08:05:00,34.1,27.7,30.01,SSW,194,1.0,3.0,77,0.00,,,0.01,12,LWC V2.00 B727,2013-01-11 15:05:00,
2013-01-11 08:10:00,34.0,27.6,30.01,SSW,194,1.0,2.0,77,0.00,,,0.01,14,LWC V2.00 B727,2013-01-11 15:10:00,
2013-01-11 08:15:00,33.9,27.5,30.01,SSW,194,1.0,1.0,77,0.00,,,0.01,16,LWC V2.00 B727,2013-01-11 15:15:00,
2013-01-11 08:20:00,33.9,27.5,30.02,SSW,194,0.0,1.0,77,0.00,,,0.01,18,LWC V2.00 B727,2013-01-11 15:20:00,
2013-01-11 08:25:00,34.0,27.6,30.02,SSW,194,0.0,1.0,77,0.00,,,0.01,19,LWC V2.00 B727,2013-01-11 15:25:00,
2013-01-11 08:30:00,34.3,28.2,30.02,SSW,194,0.0,2.0,78,0.00,,,0.01,86,LWC V2.00 B727,2013-01-11 15:30:00,
2013-01-11 08:35:00,34.8,28.0,30.02,SSW,194,0.0,1.0,76,0.00,,,0.01,95,LWC V2.00 B727,2013-01-11 15:35:00,
2013-01-11 08:40:00,35.7,28.6,30.02,SSW,194,1.0,4.0,75,0.00,,,0.01,107,LWC V2.00 B727,2013-01-11 15:40:00,
2013-01-11 08:45:00,36.2,28.7,30.03,SSW,194,0.0,2.0,74,0.00,,,0.01,135,LWC V2.00 B727,2013-01-11 15:45:00,
2013-01-11 08:50:00,36.8,29.0,30.03,SSW,194,2.0,2.0,73,0.00,,,0.01,179,LWC V2.00 B727,2013-01-11 15:50:00,
2013-01-11 08:55:00,37.1,28.9,30.03,SSW,194,1.0,3.0,72,0.00,,,0.01,185,LWC V2.00 B727,2013-01-11 15:55:00,
2013-01-11 09:00:00,37.5,29.0,30.03,SSW,194,1.0,3.0,71,0.00,,,0.01,213,LWC V2.00 B727,2013-01-11 16:00:00,
2013-01-11 09:05:00,37.9,29.4,30.03,SSW,194,2.0,2.0,71,0.00,,,0.02,278,LWC V2.00 B727,2013-01-11 16:05:00,
2013-01-11 09:10:00,38.1,28.8,30.03,SSW,194,1.0,5.0,69,0.07,,,0.03,316,LWC V2.00 B727,2013-01-11 16:10:00,
2013-01-11 09:15:00,38.3,29.0,30.03,SSW,194,1.0,3.0,69,0.07,,,0.03,323,LWC V2.00 B727,2013-01-11 16:15:00,
2013-01-11 09:20:00,38.4,28.8,30.03,SSW,194,2.0,3.0,68,0.05,,,0.04,357,LWC V2.00 B727,2013-01-11 16:20:00,
2013-01-11 09:25:00,38.4,30.5,30.03,SSW,194,0.0,3.0,73,0.05,,,0.04,427,LWC V2.00 B727,2013-01-11 16:25:00,
2013-01-11 09:30:00,38.7,30.1,30.03,SSE,165,3.0,3.0,71,0.09,,,0.05,478,LWC V2.00 B727,2013-01-11 16:30:00,
2013-01-11 09:35:00,38.9,30.3,30.03,SSE,163,4.0,4.0,71,0.09,,,0.06,490,LWC V2.00 B727,2013-01-11 16:35:00,
2013-01-11 09:40:00,39.4,30.1,30.03,SE,146,2.0,5.0,69,0.11,,,0.07,499,LWC V2.00 B727,2013-01-11 16:40:00,
2013-01-11 09:45:00,39.8,30.8,30.04,SE,145,0.0,4.0,70,0.09,,,0.07,462,LWC V2.00 B727,2013-01-11 16:45:00,
2013-01-11 09:50:00,39.6,29.6,30.04,SSE,150,3.0,5.0,67,0.06,,,0.08,113,LWC V2.00 B727,2013-01-11 16:50:00,
2013-01-11 09:55:00,38.9,29.6,30.04,SSE,150,5.0,7.0,69,0.06,,,0.08,95,LWC V2.00 B727,2013-01-11 16:55:00,
2013-01-11 10:00:00,38.4,28.4,30.04,WSW,240,0.0,2.0,67,0.05,,,0.08,76,LWC V2.00 B727,2013-01-11 17:00:00,
2013-01-11 10:05:00,38.2,28.9,30.04,WSW,240,0.0,1.0,69,0.04,,,0.08,56,LWC V2.00 B727,2013-01-11 17:05:00,
2013-01-11 10:10:00,37.9,28.7,30.04,WSW,240,2.0,3.0,69,0.00,,,0.08,51,LWC V2.00 B727,2013-01-11 17:10:00,
2013-01-11 10:15:00,37.6,28.4,30.04,WSW,240,1.0,3.0,69,0.00,,,0.08,58,LWC V2.00 B727,2013-01-11 17:15:00,
2013-01-11 10:20:00,37.5,29.0,30.04,WSW,240,0.0,0.0,71,0.00,,,0.08,67,LWC V2.00 B727,2013-01-11 17:20:00,
2013-01-11 10:25:00,37.7,28.5,30.04,WSW,240,1.0,3.0,69,0.00,,,0.08,70,LWC V2.00 B727,2013-01-11 17:25:00,
2013-01-11 10:30:00,37.7,28.5,30.04,WSW,240,0.0,1.0,69,0.00,,,0.08,86,LWC V2.00 B727,2013-01-11 17:30:00,
2013-01-11 10:35:00,37.7,28.5,30.03,WSW,240,0.0,0.0,69,0.00,,,0.08,74,LWC V2.00 B727,2013-01-11 17:35:00,
2013-01-11 10:40:00,37.7,28.5,30.03,WSW,240,0.0,3.0,69,0.00,,,0.08,118,LWC V2.00 B727,2013-01-11 17:40:00,
2013-01-11 10:45:00,37.8,28.6,30.03,WSW,240,1.0,2.0,69,0.00,,,0.08,91,LWC V2.00 B727,2013-01-11 17:45:00,
2013-01-11 10:50:00,37.8,28.2,30.03,WSW,240,2.0,2.0,68,0.00,,,0.08,74,LWC V2.00 B727,2013-01-11 17:50:00,
2013-01-11 10:55:00,37.7,28.5,30.03,WSW,240,0.0,2.0,69,0.00,,,0.08,79,LWC V2.00 B727,2013-01-11 17:55:00,
2013-01-11 11:00:00,37.8,28.2,30.03,WSW,240,2.0,2.0,68,0.00,,,0.08,84,LWC V2.00 B727,2013-01-11 18:00:00,
2013-01-11 11:05:00,37.9,27.9,30.03,WSW,240,0.0,1.0,67,0.00,,,0.08,116,LWC V2.00 B727,2013-01-11 18:05:00,
2013-01-11 11:10:00,38.3,28.0,30.03,WSW,240,0.0,1.0,66,0.00,,,0.08,120,LWC V2.00 B727,2013-01-11 18:10:00,
2013-01-11 11:15:00,38.6,27.9,30.02,WSW,240,0.0,2.0,65,0.00,,,0.08,114,LWC V2.00 B727,2013-01-11 18:15:00,
2013-01-11 11:20:00,38.6,28.2,30.02,WSW,240,0.0,0.0,66,0.00,,,0.09,130,LWC V2.00 B727,2013-01-11 18:20:00,
2013-01-11 11:25:00,38.6,27.9,30.02,WSW,240,0.0,0.0,65,0.00,,,0.09,181,LWC V2.00 B727,2013-01-11 18:25:00,
2013-01-11 11:30:00,39.5,28.3,30.02,WSW,240,3.0,4.0,64,0.00,,,0.09,724,LWC V2.00 B727,2013-01-11 18:30:00,
2013-01-11 11:35:00,40.2,27.0,30.02,WSW,240,1.0,4.0,59,0.00,,,0.09,714,LWC V2.00 B727,2013-01-11 18:35:00,
2013-01-11 11:40:00,41.1,27.0,30.02,SW,217,3.0,5.0,57,0.00,,,0.09,824,LWC V2.00 B727,2013-01-11 18:40:00,
2013-01-11 11:45:00,41.4,25.6,30.01,SW,217,1.0,2.0,53,0.00,,,0.09,786,LWC V2.00 B727,2013-01-11 18:45:00,
2013-01-11 11:50:00,41.6,26.2,30.01,SSW,206,5.0,7.0,54,0.00,,,0.09,842,LWC V2.00 B727,2013-01-11 18:50:00,
2013-01-11 11:55:00,42.5,27.0,30.01,SE,128,2.0,3.0,54,0.00,,,0.09,360,LWC V2.00 B727,2013-01-11 18:55:00,
2013-01-11 12:00:00,42.7,26.8,30.00,South,169,2.0,4.0,53,0.00,,,0.09,809,LWC V2.00 B727,2013-01-11 19:00:00,
2013-01-11 12:05:00,42.4,23.6,30.00,SE,140,1.0,6.0,47,0.00,,,0.09,292,LWC V2.00 B727,2013-01-11 19:05:00,
2013-01-11 12:10:00,42.0,25.2,30.00,SE,143,1.0,1.0,51,0.00,,,0.09,304,LWC V2.00 B727,2013-01-11 19:10:00,
2013-01-11 12:15:00,41.9,25.1,30.00,SSW,203,4.0,5.0,51,0.00,,,0.09,294,LWC V2.00 B727,2013-01-11 19:15:00,
2013-01-11 12:20:00,42.0,25.2,29.99,SSE,167,1.0,3.0,51,0.00,,,0.09,267,LWC V2.00 B727,2013-01-11 19:20:00,
2013-01-11 12:25:00,41.5,24.7,29.99,South,180,0.0,2.0,51,0.00,,,0.09,227,LWC V2.00 B727,2013-01-11 19:25:00,
2013-01-11 12:30:00,41.8,26.8,29.99,WSW,251,0.0,0.0,55,0.00,,,0.09,211,LWC V2.00 B727,2013-01-11 19:30:00,
2013-01-11 12:35:00,41.5,24.7,29.99,SSW,204,2.0,3.0,51,0.00,,,0.09,186,LWC V2.00 B727,2013-01-11 19:35:00,
2013-01-11 12:40:00,41.8,25.0,29.99,West,261,3.0,3.0,51,0.00,,,0.09,650,LWC V2.00 B727,2013-01-11 19:40:00,
2013-01-11 12:45:00,42.3,24.5,29.98,West,265,1.0,1.0,49,0.00,,,0.09,287,LWC V2.00 B727,2013-01-11 19:45:00,
2013-01-11 12:50:00,43.4,26.0,29.98,NNW,342,3.0,5.0,50,0.00,,,0.09,809,LWC V2.00 B727,2013-01-11 19:50:00,
2013-01-11 12:55:00,43.6,23.7,29.98,North,350,3.0,4.0,45,0.00,,,0.09,795,LWC V2.00 B727,2013-01-11 19:55:00,
2013-01-11 13:00:00,43.2,24.3,29.97,NNW,348,4.0,5.0,47,0.00,,,0.09,580,LWC V2.00 B727,2013-01-11 20:00:00,
2013-01-11 13:05:00,43.1,22.7,29.98,WSW,251,3.0,4.0,44,0.00,,,0.09,793,LWC V2.00 B727,2013-01-11 20:05:00,
2013-01-11 13:10:00,44.1,24.7,29.98,WNW,296,0.0,3.0,46,0.00,,,0.09,763,LWC V2.00 B727,2013-01-11 20:10:00,
2013-01-11 13:15:00,43.6,23.7,29.98,NW,312,0.0,0.0,45,0.00,,,0.09,786,LWC V2.00 B727,2013-01-11 20:15:00,
2013-01-11 13:20:00,43.7,23.8,29.97,NW,314,0.0,3.0,45,0.00,,,0.09,780,LWC V2.00 B727,2013-01-11 20:20:00,
2013-01-11 13:25:00,43.8,21.1,29.97,NNW,348,0.0,2.0,40,0.00,,,0.09,761,LWC V2.00 B727,2013-01-11 20:25:00,
2013-01-11 13:30:00,43.8,22.8,29.97,WSW,256,4.0,4.0,43,0.00,,,0.09,221,LWC V2.00 B727,2013-01-11 20:30:00,
2013-01-11 13:35:00,43.3,23.4,29.97,SW,235,5.0,5.0,45,0.00,,,0.09,213,LWC V2.00 B727,2013-01-11 20:35:00,
2013-01-11 13:40:00,44.6,25.1,29.97,WSW,240,3.0,4.0,46,0.00,,,0.09,661,LWC V2.00 B727,2013-01-11 20:40:00,
2013-01-11 13:45:00,44.8,23.1,29.97,SSW,213,4.0,7.0,42,0.00,,,0.09,211,LWC V2.00 B727,2013-01-11 20:45:00,
2013-01-11 13:50:00,43.8,22.8,29.97,SW,235,2.0,5.0,43,0.00,,,0.09,202,LWC V2.00 B727,2013-01-11 20:50:00,
2013-01-11 13:55:00,43.2,22.2,29.97,WNW,299,0.0,3.0,43,0.00,,,0.09,142,LWC V2.00 B727,2013-01-11 20:55:00,
2013-01-11 14:00:00,42.9,23.0,29.96,WNW,299,0.0,1.0,45,0.00,,,0.09,141,LWC V2.00 B727,2013-01-11 21:00:00,
2013-01-11 14:05:00,42.6,21.1,29.96,WNW,299,0.0,0.0,42,0.00,,,0.09,134,LWC V2.00 B727,2013-01-11 21:05:00,
2013-01-11 14:10:00,42.5,23.2,29.96,WNW,299,0.0,2.0,46,0.00,,,0.09,125,LWC V2.00 B727,2013-01-11 21:10:00,
2013-01-11 14:15:00,42.7,22.3,29.96,WNW,299,0.0,1.0,44,0.00,,,0.09,139,LWC V2.00 B727,2013-01-11 21:15:00,
2013-01-11 14:20:00,42.8,23.5,29.96,WNW,299,0.0,2.0,46,0.00,,,0.09,146,LWC V2.00 B727,2013-01-11 21:20:00,
2013-01-11 14:25:00,42.5,22.7,29.96,WNW,301,0.0,3.0,45,0.00,,,0.09,251,LWC V2.00 B727,2013-01-11 21:25:00,
2013-01-11 14:30:00,43.5,22.5,29.97,NNE,19,5.0,6.0,43,0.00,,,0.09,603,LWC V2.00 B727,2013-01-11 21:30:00,
2013-01-11 14:35:00,44.3,23.2,29.96,North,350,2.0,6.0,43,0.00,,,0.09,524,LWC V2.00 B727,2013-01-11 21:35:00,
2013-01-11 14:40:00,43.1,22.1,29.96,NNE,17,3.0,7.0,43,0.00,,,0.09,135,LWC V2.00 B727,2013-01-11 21:40:00,
2013-01-11 14:45:00,42.9,23.0,29.96,North,0,5.0,5.0,45,0.00,,,0.09,547,LWC V2.00 B727,2013-01-11 21:45:00,
2013-01-11 14:50:00,43.4,21.3,29.96,NNE,17,3.0,6.0,41,0.00,,,0.09,529,LWC V2.00 B727,2013-01-11 21:50:00,
2013-01-11 14:55:00,44.3,23.2,29.96,North,11,1.0,3.0,43,0.00,,,0.09,513,LWC V2.00 B727,2013-01-11 21:55:00,
2013-01-11 15:00:00,44.5,19.9,29.96,North,349,3.0,5.0,37,0.00,,,0.09,506,LWC V2.00 B727,2013-01-11 22:00:00,
2013-01-11 15:05:00,44.2,20.2,29.96,NNE,12,3.0,5.0,38,0.00,,,0.09,497,LWC V2.00 B727,2013-01-11 22:05:00,
2013-01-11 15:10:00,44.3,19.0,29.96,North,5,4.0,5.0,36,0.00,,,0.09,475,LWC V2.00 B727,2013-01-11 22:10:00,
2013-01-11 15:15:00,44.3,17.7,29.96,North,0,1.0,5.0,34,0.00,,,0.09,457,LWC V2.00 B727,2013-01-11 22:15:00,
2013-01-11 15:20:00,44.9,18.3,29.96,North,0,1.0,4.0,34,0.00,,,0.09,462,LWC V2.00 B727,2013-01-11 22:20:00,
2013-01-11 15:25:00,45.0,16.9,29.96,North,5,1.0,5.0,32,0.00,,,0.09,450,LWC V2.00 B727,2013-01-11 22:25:00,
2013-01-11 15:30:00,45.1,17.0,29.97,NW,307,0.0,7.0,32,0.00,,,0.09,429,LWC V2.00 B727,2013-01-11 22:30:00,
2013-01-11 15:35:00,45.3,15.7,29.97,NNW,342,1.0,2.0,30,0.00,,,0.09,415,LWC V2.00 B727,2013-01-11 22:35:00,
2013-01-11 15:40:00,44.9,15.4,29.97,NW,321,0.0,5.0,30,0.00,,,0.09,385,LWC V2.00 B727,2013-01-11 22:40:00,
2013-01-11 15:45:00,44.3,13.3,29.96,NNE,17,1.0,6.0,28,0.00,,,0.09,357,LWC V2.00 B727,2013-01-11 22:45:00,
2013-01-11 15:50:00,43.7,12.8,29.97,NNE,12,0.0,1.0,28,0.00,,,0.09,318,LWC V2.00 B727,2013-01-11 22:50:00,
2013-01-11 15:55:00,43.9,13.7,29.96,NE,34,4.0,5.0,29,0.00,,,0.09,294,LWC V2.00 B727,2013-01-11 22:55:00,
2013-01-11 16:00:00,43.7,14.3,29.96,East,79,2.0,3.0,30,0.00,,,0.09,276,LWC V2.00 B727,2013-01-11 23:00:00,
2013-01-11 16:05:00,43.7,14.3,29.96,NNE,18,0.0,2.0,30,0.00,,,0.09,258,LWC V2.00 B727,2013-01-11 23:05:00,
2013-01-11 16:10:00,44.1,15.4,29.96,NNE,15,1.0,1.0,31,0.00,,,0.09,239,LWC V2.00 B727,2013-01-11 23:10:00,
2013-01-11 16:15:00,43.8,15.9,29.96,WNW,301,0.0,7.0,32,0.00,,,0.09,225,LWC V2.00 B727,2013-01-11 23:15:00,
2013-01-11 16:20:00,43.6,16.4,29.96,North,0,3.0,4.0,33,0.00,,,0.09,204,LWC V2.00 B727,2013-01-11 23:20:00,
2013-01-11 16:25:00,43.5,15.6,29.96,NNW,339,0.0,4.0,32,0.00,,,0.09,185,LWC V2.00 B727,2013-01-11 23:25:00,
2013-01-11 16:30:00,43.5,17.0,29.96,North,0,0.0,1.0,34,0.00,,,0.09,165,LWC V2.00 B727,2013-01-11 23:30:00,
2013-01-11 16:35:00,43.6,16.4,29.96,North,350,2.0,3.0,33,0.00,,,0.09,146,LWC V2.00 B727,2013-01-11 23:35:00,
2013-01-11 16:40:00,43.5,16.3,29.97,NNW,340,3.0,3.0,33,0.00,,,0.09,127,LWC V2.00 B727,2013-01-11 23:40:00,
2013-01-11 16:45:00,43.1,15.3,29.97,NNW,336,2.0,3.0,32,0.00,,,0.09,113,LWC V2.00 B727,2013-01-11 23:45:00,
2013-01-11 16:50:00,42.8,15.7,29.97,NW,304,3.0,5.0,33,0.00,,,0.09,95,LWC V2.00 B727,2013-01-11 23:50:00,
2013-01-11 16:55:00,42.4,16.0,29.97,WNW,297,0.0,3.0,34,0.00,,,0.09,77,LWC V2.00 B727,2013-01-11 23:55:00,
2013-01-11 17:00:00,42.4,14.7,29.97,WNW,295,1.0,5.0,32,0.00,,,0.09,62,LWC V2.00 B727,2013-01-12 00:00:00,
2013-01-11 17:05:00,42.6,14.8,29.97,WNW,290,3.0,5.0,32,0.00,,,0.09,49,LWC V2.00 B727,2013-01-12 00:05:00,
2013-01-11 17:10:00,42.0,13.6,29.97,WNW,288,3.0,3.0,31,0.00,,,0.09,37,LWC V2.00 B727,2013-01-12 00:10:00,
2013-01-11 17:15:00,41.6,13.2,29.98,NW,316,0.0,3.0,31,0.00,,,0.09,25,LWC V2.00 B727,2013-01-12 00:15:00,
2013-01-11 17:20:00,41.5,13.9,29.98,NW,316,1.0,1.0,32,0.00,,,0.09,18,LWC V2.00 B727,2013-01-12 00:20:00,
2013-01-11 17:25:00,40.9,14.0,29.98,NW,316,0.0,2.0,33,0.00,,,0.09,14,LWC V2.00 B727,2013-01-12 00:25:00,
2013-01-11 17:30:00,40.5,14.4,29.98,NW,316,1.0,1.0,34,0.00,,,0.09,11,LWC V2.00 B727,2013-01-12 00:30:00,
2013-01-11 17:35:00,40.2,14.8,29.98,NW,316,0.0,3.0,35,0.00,,,0.09,7,LWC V2.00 B727,2013-01-12 00:35:00,
2013-01-11 17:40:00,39.9,14.5,29.99,NW,316,0.0,0.0,35,0.00,,,0.09,5,LWC V2.00 B727,2013-01-12 00:40:00,
2013-01-11 17:45:00,39.5,14.8,29.99,NW,316,0.0,3.0,36,0.00,,,0.09,0,LWC V2.00 B727,2013-01-12 00:45:00,
2013-01-11 17:50:00,39.1,15.1,29.99,NW,316,0.0,1.0,37,0.00,,,0.09,0,LWC V2.00 B727,2013-01-12 00:50:00,
2013-01-11 17:55:00,38.4,14.4,29.99,NW,316,0.0,3.0,37,0.00,,,0.09,0,LWC V2.00 B727,2013-01-12 00:55:00,
2013-01-11 18:00:00,37.7,13.2,29.99,NW,316,0.0,1.0,36,0.00,,,0.09,0,LWC V2.00 B727,2013-01-12 01:00:00,
2013-01-11 18:05:00,37.5,13.0,29.99,NW,316,0.0,1.0,36,0.00,,,0.09,0,LWC V2.00 B727,2013-01-12 01:05:00,
2013-01-11 18:10:00,37.1,12.6,29.99,NW,316,0.0,0.0,36,0.00,,,0.09,0,LWC V2.00 B727,2013-01-12 01:10:00,
2013-01-11 18:15:00,36.4,13.2,29.99,NW,316,0.0,2.0,38,0.00,,,0.09,0,LWC V2.00 B727,2013-01-12 01:15:00,
2013-01-11 18:20:00,36.4,12.6,29.99,NW,316,2.0,2.0,37,0.00,,,0.09,0,LWC V2.00 B727,2013-01-12 01:20:00,
2013-01-11 18:25:00,36.4,12.6,30.00,NW,316,2.0,4.0,37,0.00,,,0.09,0,LWC V2.00 B727,2013-01-12 01:25:00,
2013-01-11 18:30:00,36.6,12.2,30.00,ENE,63,3.0,4.0,36,0.00,,,0.09,0,LWC V2.00 B727,2013-01-12 01:30:00,
2013-01-11 18:35:00,37.0,11.9,30.00,NNE,28,0.0,4.0,35,0.00,,,0.09,0,LWC V2.00 B727,2013-01-12 01:35:00,
2013-01-11 18:40:00,37.0,11.9,30.00,NE,44,2.0,4.0,35,0.00,,,0.09,0,LWC V2.00 B727,2013-01-12 01:40:00,
2013-01-11 18:45:00,36.8,11.7,30.00,NE,40,2.0,3.0,35,0.00,,,0.09,0,LWC V2.00 B727,2013-01-12 01:45:00,
2013-01-11 18:50:00,36.7,11.7,30.00,NE,40,2.0,3.0,35,0.00,,,0.09,0,LWC V2.00 B727,2013-01-12 01:50:00,
2013-01-11 18:55:00,36.8,11.7,30.00,NE,36,0.0,0.0,35,0.00,,,0.09,0,LWC V2.00 B727,2013-01-12 01:55:00,
2013-01-11 19:00:00,36.3,11.9,30.00,NE,36,0.0,0.0,36,0.00,,,0.09,0,LWC V2.00 B727,2013-01-12 02:00:00,
2013-01-11 19:05:00,35.9,12.2,30.00,NE,36,2.0,3.0,37,0.00,,,0.09,0,LWC V2.00 B727,2013-01-12 02:05:00,
2013-01-11 19:10:00,35.6,12.5,30.00,NE,36,3.0,3.0,38,0.00,,,0.09,0,LWC V2.00 B727,2013-01-12 02:10:00,
2013-01-11 19:15:00,35.7,12.0,30.00,NE,36,2.0,3.0,37,0.00,,,0.09,0,LWC V2.00 B727,2013-01-12 02:15:00,
2013-01-11 19:20:00,35.5,12.4,30.00,NE,40,3.0,3.0,38,0.00,,,0.09,0,LWC V2.00 B727,2013-01-12 02:20:00,
2013-01-11 19:25:00,35.1,13.2,30.00,NE,56,2.0,4.0,40,0.00,,,0.09,0,LWC V2.00 B727,2013-01-12 02:25:00,
2013-01-11 19:30:00,34.6,14.4,30.00,NE,56,2.0,4.0,43,0.00,,,0.09,0,LWC V2.00 B727,2013-01-12 02:30:00,
2013-01-11 19:35:00,34.1,15.0,30.00,ENE,57,3.0,5.0,45,0.00,,,0.09,0,LWC V2.00 B727,2013-01-12 02:35:00,
2013-01-11 19:40:00,33.9,15.3,30.00,ENE,59,3.0,3.0,46,0.00,,,0.09,0,LWC V2.00 B727,2013-01-12 02:40:00,
2013-01-11 19:45:00,33.7,15.1,30.00,ENE,69,3.0,4.0,46,0.00,,,0.09,0,LWC V2.00 B727,2013-01-12 02:45:00,
2013-01-11 19:50:00,33.4,15.4,30.01,ENE,69,3.0,3.0,47,0.00,,,0.09,0,LWC V2.00 B727,2013-01-12 02:50:00,
2013-01-11 19:55:00,33.4,15.4,30.01,ENE,69,2.0,3.0,47,0.00,,,0.09,0,LWC V2.00 B727,2013-01-12 02:55:00,
2013-01-11 20:00:00,33.5,15.0,30.01,ENE,69,3.0,4.0,46,0.00,,,0.09,0,LWC V2.00 B727,2013-01-12 03:00:00,
2013-01-11 20:05:00,33.4,14.9,30.00,ENE,68,3.0,4.0,46,0.00,,,0.09,0,LWC V2.00 B727,2013-01-12 03:05:00,
2013-01-11 20:10:00,33.5,14.5,30.01,ENE,65,3.0,5.0,45,0.00,,,0.09,0,LWC V2.00 B727,2013-01-12 03:10:00,
2013-01-11 20:15:00,33.7,13.6,30.01,ENE,65,4.0,4.0,43,0.00,,,0.09,0,LWC V2.00 B727,2013-01-12 03:15:00,
2013-01-11 20:20:00,33.8,14.2,30.01,ENE,65,3.0,4.0,44,0.00,,,0.09,0,LWC V2.00 B727,2013-01-12 03:20:00,
2013-01-11 20:25:00,33.5,14.5,30.01,ENE,65,1.0,2.0,45,0.00,,,0.09,0,LWC V2.00 B727,2013-01-12 03:25:00,
2013-01-11 20:30:00,33.0,14.5,30.01,ENE,65,1.0,3.0,46,0.00,,,0.09,0,LWC V2.00 B727,2013-01-12 03:30:00,
2013-01-11 20:35:00,32.9,14.4,30.01,ENE,65,2.0,3.0,46,0.00,,,0.09,0,LWC V2.00 B727,2013-01-12 03:35:00,
2013-01-11 20:40:00,32.9,14.4,30.01,ENE,65,2.0,3.0,46,0.00,,,0.09,0,LWC V2.00 B727,2013-01-12 03:40:00,
2013-01-11 20:45:00,32.4,14.4,30.01,ENE,65,2.0,3.0,47,0.00,,,0.09,0,LWC V2.00 B727,2013-01-12 03:45:00,
2013-01-11 20:50:00,32.8,13.8,30.01,ENE,65,4.0,4.0,45,0.00,,,0.09,0,LWC V2.00 B727,2013-01-12 03:50:00,
2013-01-11 20:55:00,33.6,13.5,30.01,ENE,65,3.0,3.0,43,0.00,,,0.09,0,LWC V2.00 B727,2013-01-12 03:55:00,
2013-01-11 21:00:00,33.5,13.4,30.01,ENE,65,4.0,5.0,43,0.00,,,0.09,0,LWC V2.00 B727,2013-01-12 04:00:00,
2013-01-11 21:05:00,33.3,13.8,30.01,ENE,65,1.0,3.0,44,0.00,,,0.09,0,LWC V2.00 B727,2013-01-12 04:05:00,
2013-01-11 21:10:00,33.3,13.8,30.02,ENE,65,3.0,4.0,44,0.00,,,0.09,0,LWC V2.00 B727,2013-01-12 04:10:00,
2013-01-11 21:15:00,33.1,13.6,30.02,ENE,65,1.0,3.0,44,0.00,,,0.09,0,LWC V2.00 B727,2013-01-12 04:15:00,
2013-01-11 21:20:00,32.7,13.7,30.02,ENE,65,3.0,4.0,45,0.00,,,0.09,0,LWC V2.00 B727,2013-01-12 04:20:00,
2013-01-11 21:25:00,32.6,13.6,30.02,ENE,65,1.0,3.0,45,0.00,,,0.09,0,LWC V2.00 B727,2013-01-12 04:25:00,
2013-01-11 21:30:00,32.8,13.3,30.02,ENE,65,3.0,4.0,44,0.00,,,0.09,0,LWC V2.00 B727,2013-01-12 04:30:00,
2013-01-11 21:35:00,32.7,13.7,30.02,ENE,65,3.0,4.0,45,0.00,,,0.09,0,LWC V2.00 B727,2013-01-12 04:35:00,
2013-01-11 21:40:00,32.5,13.5,30.02,ENE,65,3.0,4.0,45,0.00,,,0.09,0,LWC V2.00 B727,2013-01-12 04:40:00,
2013-01-11 21:45:00,32.4,13.5,30.02,ENE,65,2.0,4.0,45,0.00,,,0.09,0,LWC V2.00 B727,2013-01-12 04:45:00,
2013-01-11 21:50:00,32.4,12.9,30.02,ENE,65,3.0,3.0,44,0.00,,,0.09,0,LWC V2.00 B727,2013-01-12 04:50:00,
2013-01-11 21:55:00,32.4,12.9,30.02,ENE,65,1.0,2.0,44,0.00,,,0.09,0,LWC V2.00 B727,2013-01-12 04:55:00,
2013-01-11 22:00:00,32.8,12.8,30.02,ENE,65,3.0,4.0,43,0.00,,,0.09,0,LWC V2.00 B727,2013-01-12 05:00:00,
2013-01-11 22:05:00,32.9,12.4,30.02,ENE,57,3.0,5.0,42,0.00,,,0.09,0,LWC V2.00 B727,2013-01-12 05:05:00,
2013-01-11 22:10:00,33.2,11.5,30.03,ENE,57,2.0,4.0,40,0.00,,,0.09,0,LWC V2.00 B727,2013-01-12 05:10:00,
2013-01-11 22:15:00,33.4,11.1,30.03,ENE,57,3.0,3.0,39,0.00,,,0.09,0,LWC V2.00 B727,2013-01-12 05:15:00,
2013-01-11 22:20:00,33.4,11.7,30.03,ENE,57,3.0,3.0,40,0.00,,,0.09,0,LWC V2.00 B727,2013-01-12 05:20:00,
2013-01-11 22:25:00,33.0,11.3,30.03,ENE,57,2.0,3.0,40,0.00,,,0.09,0,LWC V2.00 B727,2013-01-12 05:25:00,
2013-01-11 22:30:00,32.5,12.0,30.03,ENE,57,3.0,3.0,42,0.00,,,0.09,0,LWC V2.00 B727,2013-01-12 05:30:00,
2013-01-11 22:35:00,32.7,11.6,30.03,ENE,57,2.0,3.0,41,0.00,,,0.09,0,LWC V2.00 B727,2013-01-12 05:35:00,
2013-01-11 22:40:00,32.7,11.6,30.03,ENE,57,3.0,4.0,41,0.00,,,0.09,0,LWC V2.00 B727,2013-01-12 05:40:00,
2013-01-11 22:45:00,32.6,12.1,30.04,ENE,57,3.0,4.0,42,0.00,,,0.09,0,LWC V2.00 B727,2013-01-12 05:45:00,
2013-01-11 22:50:00,32.3,12.3,30.04,ENE,57,3.0,4.0,43,0.00,,,0.09,0,LWC V2.00 B727,2013-01-12 05:50:00,
2013-01-11 22:55:00,32.3,12.3,30.04,ENE,57,4.0,5.0,43,0.00,,,0.09,0,LWC V2.00 B727,2013-01-12 05:55:00,
2013-01-11 23:00:00,32.1,12.7,30.04,ENE,57,3.0,4.0,44,0.00,,,0.09,0,LWC V2.00 B727,2013-01-12 06:00:00,
2013-01-11 23:05:00,31.9,13.0,30.04,ENE,58,3.0,4.0,45,0.00,,,0.09,0,LWC V2.00 B727,2013-01-12 06:05:00,
2013-01-11 23:10:00,31.6,12.7,30.04,ENE,59,4.0,5.0,45,0.00,,,0.09,0,LWC V2.00 B727,2013-01-12 06:10:00,
2013-01-11 23:15:00,31.5,13.1,30.04,ENE,59,4.0,4.0,46,0.00,,,0.09,0,LWC V2.00 B727,2013-01-12 06:15:00,
2013-01-11 23:20:00,31.3,12.9,30.04,ENE,59,3.0,4.0,46,0.00,,,0.09,0,LWC V2.00 B727,2013-01-12 06:20:00,
2013-01-11 23:25:00,31.3,12.9,30.04,ENE,59,3.0,4.0,46,0.00,,,0.09,0,LWC V2.00 B727,2013-01-12 06:25:00,
2013-01-11 23:30:00,31.5,12.6,30.04,ENE,69,4.0,5.0,45,0.00,,,0.09,0,LWC V2.00 B727,2013-01-12 06:30:00,
2013-01-11 23:35:00,31.6,12.7,30.04,ENE,69,3.0,5.0,45,0.00,,,0.09,0,LWC V2.00 B727,2013-01-12 06:35:00,
2013-01-11 23:40:00,31.5,12.6,30.04,ENE,69,4.0,4.0,45,0.00,,,0.09,0,LWC V2.00 B727,2013-01-12 06:40:00,
2013-01-11 23:45:00,31.5,12.6,30.04,ENE,69,3.0,4.0,45,0.00,,,0.09,0,LWC V2.00 B727,2013-01-12 06:45:00,
2013-01-11 23:50:00,31.4,12.5,30.04,ENE,69,2.0,4.0,45,0.00,,,0.09,0,LWC V2.00 B727,2013-01-12 06:50:00,
2013-01-11 23:55:00,31.5,12.6,30.04,ENE,69,3.0,3.0,45,0.00,,,0.09,0,LWC V2.00 B727,2013-01-12 06:55:00,